Tracking 19564 objects as of 18-Mar-2019
HD Live streaming from Space Station
objects crossing your sky now

COSMOS 1413 (GLONASS)

Track COSMOS 1413 (GLONASS) now!
COSMOS 1413 (GLONASS) is classified as:


NORAD ID: 13603
Int'l Code: 1982-100A
Perigee: 19,058.5 km
Apogee: 19,093.8 km
Inclination: 64.0 °
Period: 673.3 minutes
Semi major axis: 25447 km
RCS: 0.4302 m2 (medium)
Launch date: October 12, 1982
Source: Commonwealth of Independent States (former USSR) (CIS)
Launch site: TYURATAM MISSILE AND SPACE COMPLEX (TTMTR)
aabbcc
Your satellite tracking list
Your tracking list is empty




NASA's NSSDC Master Catalog

Two Line Element Set (TLE):
1 13603U 82100A   19076.07284368  .00000002  00000-0  00000+0 0  9996
2 13603  63.9840 159.1273 0006936  10.7341 275.1437  2.13866797284533
Source of the keplerian elements: AFSPC